Ashtabula, OH

8:30 PM EDT on June 23, 2017 (GMT -0400)
Ashtabula County

Weather History for KHZY - February, 2013

Change the Weather History Date:

Thursday, February 21, 2013

  Actual Average (KGKJ) Record (KGKJ)
Temperature  
Mean Temperature 18 °F -  
Max Temperature 19 °F 36 °F 59 °F (2017)
Min Temperature 16 °F 18 °F -10 °F (1963)
Degree Days  
Heating Degree Days 48    
Moisture  
Dew Point 11 °F    
Average Humidity 72    
Maximum Humidity 80    
Minimum Humidity 65    
Precipitation  
Precipitation 0.01 in - - ()
Sea Level Pressure  
Sea Level Pressure 30.30 in    
Wind  
Wind Speed 7 mph (NW)    
Max Wind Speed 15 mph    
Max Gust Speed 20 mph    
Visibility 6 miles    
Events Snow    
Averages and records for this station are not official NWS values.
T = Trace of Precipitation, MM = Missing Value Source: NWS Daily Summary

Daily Weather History Graph

Daily Weather History Graph

Search for Another Location

Airport or City:

Trip Planner

Search our weather history database for the weather conditions in past years. The results will help you decide how hot, cold, wet, or windy it might be!

Date:

Astronomy

Feb. 21, 2013 Rise Set
Actual Time 7:09 AM EST 6:03 PM EST
Civil Twilight 6:41 AM EST 6:32 PM EST
Nautical Twilight 6:08 AM EST 7:04 PM EST
Astronomical Twilight 5:36 AM EST 7:36 PM EST
Moon 2:15 PM EST (2/21) 4:15 AM EST (2/21)
Length of Visible Light 11h 50m
Length of Day
10h 54m
Waxing Gibbous, 83% of the Moon is Illuminated
Feb 21
Waxing Gibbous
Feb 25
Full
Mar 4
Last Quarter
Mar 11
New
Mar 19
First Quarter

Hourly Weather History & Observations

Time (EST) Temp. Windchill Dew Point Humidity Pressure Visibility Wind Dir Wind Speed Gust Speed Precip Events Conditions
12:34 AM 19.4 °F 10.4 °F 12.2 °F 74% 30.16 in 2.0 mi West 6.9 mph - 0.00 in Snow Light Snow
12:42 AM 19.4 °F 11.5 °F 12.2 °F 74% 30.15 in 3.0 mi West 5.8 mph - 0.00 in Snow Light Snow
12:50 AM 19.4 °F 11.5 °F 12.2 °F 74% 30.15 in 2.5 mi West 5.8 mph - 0.00 in Snow Light Snow
12:53 AM 19.0 °F 11.1 °F 12.9 °F 77% 30.20 in 2.5 mi West 5.8 mph - 0.00 in Snow Light Snow
1:00 AM 19.4 °F 11.5 °F 14.0 °F 80% 30.15 in 1.8 mi West 5.8 mph - 0.01 in Snow Light Snow
1:07 AM 19.4 °F 10.4 °F 14.0 °F 80% 30.16 in 3.0 mi WNW 6.9 mph - 0.01 in Snow Light Snow
1:53 AM 19.9 °F 8.6 °F 12.0 °F 71% 30.20 in 9.0 mi NW 10.4 mph - 0.01 in Snow Light Snow
2:53 AM 19.0 °F 8.2 °F 10.0 °F 68% 30.22 in 10.0 mi NW 9.2 mph - 0.00 in   Overcast
3:53 AM 18.0 °F 5.4 °F 10.0 °F 71% 30.23 in 7.0 mi NW 11.5 mph 18.4 mph 0.00 in Snow Light Snow
4:53 AM 18.0 °F 7.7 °F 9.0 °F 68% 30.24 in 9.0 mi NNW 8.1 mph - 0.00 in Snow Light Snow
5:53 AM 18.0 °F 6.1 °F 9.0 °F 68% 30.27 in 9.0 mi NW 10.4 mph - 0.00 in Snow Light Snow
6:37 AM 17.6 °F 7.3 °F 8.6 °F 68% 30.23 in 10.0 mi WNW 8.1 mph - 0.00 in   Overcast
6:53 AM 18.0 °F 7.7 °F 9.0 °F 68% 30.29 in 10.0 mi WNW 8.1 mph - 0.00 in   Overcast
7:13 AM 17.6 °F 6.4 °F 8.6 °F 68% 30.25 in 9.0 mi WNW 9.2 mph - 0.00 in Snow Light Snow
7:53 AM 17.1 °F 5.8 °F 10.0 °F 74% 30.31 in 6.0 mi WNW 9.2 mph - 0.00 in Snow Light Snow
8:53 AM 18.0 °F 6.1 °F 10.9 °F 74% 30.36 in 3.0 mi NW 10.4 mph - 0.00 in Snow Light Snow
9:29 AM 17.6 °F 3.2 °F 10.4 °F 73% 30.30 in 1.8 mi NW 15.0 mph 19.6 mph 0.00 in Snow Light Snow
9:33 AM 17.6 °F 6.4 °F 10.4 °F 73% 30.30 in 2.0 mi NW 9.2 mph 19.6 mph 0.00 in Snow Light Snow
9:49 AM 17.6 °F 7.3 °F 12.2 °F 79% 30.30 in 1.5 mi NW 8.1 mph - 0.00 in Snow Light Snow
9:53 AM 18.0 °F 6.1 °F 12.0 °F 78% 30.35 in 1.5 mi NW 10.4 mph - 0.00 in Snow Light Snow
10:23 AM 19.4 °F 8.6 °F 10.4 °F 68% 30.29 in 2.0 mi NW 9.2 mph - 0.00 in Snow Light Snow
10:53 AM 19.0 °F 8.2 °F 12.0 °F 74% 30.35 in 2.5 mi NW 9.2 mph - 0.00 in Snow Light Snow
11:18 AM 19.4 °F 9.5 °F 12.2 °F 74% 30.31 in 3.0 mi NW 8.1 mph - 0.00 in Snow Light Snow
11:53 AM 19.9 °F 12.1 °F 10.9 °F 68% 30.36 in 7.0 mi NW 5.8 mph 17.3 mph 0.00 in Snow Light Snow
12:53 PM 19.9 °F 9.3 °F 10.9 °F 68% 30.36 in 8.0 mi WNW 9.2 mph - 0.00 in Snow Light Snow
1:53 PM 19.9 °F 11.1 °F 10.9 °F 68% 30.35 in 5.0 mi NW 6.9 mph - 0.00 in Snow Light Snow
2:11 PM 19.4 °F 10.4 °F 12.2 °F 74% 30.31 in 2.0 mi NW 6.9 mph - 0.00 in Snow Light Snow
2:18 PM 19.4 °F 11.5 °F 12.2 °F 74% 30.32 in 1.8 mi NW 5.8 mph - 0.00 in Snow Light Snow
2:23 PM 19.4 °F 11.5 °F 12.2 °F 74% 30.32 in 3.0 mi WNW 5.8 mph - 0.00 in Snow Light Snow
2:53 PM 19.9 °F 9.3 °F 10.9 °F 68% 30.37 in 7.0 mi NW 9.2 mph - 0.00 in Snow Light Snow
3:53 PM 19.9 °F 11.1 °F 12.0 °F 71% 30.36 in 10.0 mi North 6.9 mph - 0.00 in   Overcast
4:53 PM 19.9 °F 14.9 °F 10.9 °F 68% 30.35 in 10.0 mi North 3.5 mph - N/A   Overcast
5:53 PM 19.9 °F - 10.0 °F 65% 30.41 in 10.0 mi Calm Calm - N/A   Overcast
6:53 PM 19.0 °F - 10.9 °F 71% 30.41 in 10.0 mi Calm Calm - N/A   Overcast
7:53 PM 19.0 °F - 10.9 °F 71% 30.40 in 10.0 mi Calm Calm - N/A   Overcast
8:53 PM 19.0 °F 13.9 °F 10.9 °F 71% 30.39 in 10.0 mi ENE 3.5 mph - N/A   Overcast
9:38 PM 17.6 °F 12.3 °F 10.4 °F 73% 30.33 in 10.0 mi East 3.5 mph - N/A   Overcast
9:53 PM 18.0 °F 12.7 °F 10.9 °F 74% 30.38 in 10.0 mi SE 3.5 mph - N/A   Overcast
10:53 PM 16.0 °F 7.4 °F 9.0 °F 74% 30.35 in 10.0 mi East 5.8 mph - N/A   Scattered Clouds
11:53 PM 16.0 °F 5.3 °F 10.0 °F 77% 30.32 in 10.0 mi East 8.1 mph - N/A   Clear